Location: San Antonio
(29.4240°N, 98.4930°W)
Time: 20:22:21
(UTC-05:00)

ISS - All Passes

Search period start: 29 May 2017 00:00
Search period end: 08 June 2017 00:00
Orbit: 402 x 408 km, 51.6° (Epoch: 30 May)

Date Brightness Start Highest point End Pass type
(mag) Time Alt. Az. Time Alt. Az. Time Alt. Az.
29 May - 03:15:43 10° NNW 03:18:22 22° NE 03:21:00 10° E night (unlit)
29 May - 04:52:11 10° WNW 04:54:45 21° SW 04:57:18 10° S night (unlit)
29 May - 18:16:16 10° SSE 18:17:42 12° SE 18:19:09 10° E daylight
29 May - 19:50:49 10° WSW 19:53:54 36° NW 19:56:59 10° NNE daylight
30 May - 02:24:42 10° N 02:26:08 12° NE 02:27:34 10° ENE night (unlit)
30 May - 03:59:39 10° NW 04:02:50 50° SW 04:06:00 10° SSE night (unlit)
30 May - 18:58:33 10° SW 19:01:50 87° NW 19:05:08 10° NE daylight
31 May - 03:07:34 10° NW 03:10:48 64° NE 03:14:02 10° SE night (unlit)
31 May - 18:06:46 10° SSW 18:09:50 37° SE 18:12:54 10° ENE daylight
31 May - 19:44:25 10° WNW 19:46:25 15° NW 19:48:26 10° N daylight
01 Jun - 02:15:48 10° NNW 02:18:42 28° NE 02:21:35 10° ESE night (unlit)
01 Jun - 03:52:54 10° W 03:54:58 16° SW 03:57:03 10° SSW night (unlit)
01 Jun - 17:15:43 10° SSE 17:17:54 17° SE 17:20:05 10° E daylight
01 Jun - 18:51:18 10° WSW 18:54:11 28° NW 18:57:05 10° NNE daylight
02 Jun - 01:24:27 10° N 01:26:28 15° NE 01:28:30 10° ENE visible
02 Jun - 03:00:01 10° WNW 03:03:02 35° SW 03:06:03 10° SSE night (unlit)
02 Jun - 17:58:48 10° SW 18:02:03 62° NW 18:05:19 10° NE daylight
03 Jun - 02:07:44 10° NW 02:11:01 90° SW 02:14:16 10° SE night (unlit)
03 Jun - 17:06:47 10° SSW 17:09:59 52° SE 17:13:12 10° NE daylight
03 Jun - 18:45:17 10° WNW 18:46:41 12° NW 18:48:05 10° N daylight
04 Jun - 01:15:49 10° NNW 01:18:54 37° NE 01:21:58 10° ESE night (unlit)
04 Jun - 02:53:48 10° WSW 02:55:05 12° SW 02:56:20 10° SSW night (unlit)
04 Jun - 16:15:22 10° S 16:17:59 22° SE 16:20:37 10° ENE daylight
04 Jun - 17:51:45 10° W 17:54:23 22° NW 17:57:01 10° NNE daylight
05 Jun - 00:24:14 10° N 00:26:40 19° NE 00:29:06 10° E visible
05 Jun - 02:00:20 10° WNW 02:03:08 26° SW 02:05:54 10° S night (unlit)
05 Jun - 16:59:00 10° WSW 17:02:10 44° NW 17:05:21 10° NNE daylight
05 Jun - 23:33:33 10° NNE 23:34:20 11° NE 23:35:08 10° NE visible
06 Jun - 01:07:52 10° NW 01:11:06 64° SW 01:14:19 10° SSE night (unlit)
06 Jun - 16:06:46 10° SW 16:10:02 75° SE 16:13:19 10° NE daylight
07 Jun - 00:15:46 10° NNW 00:18:59 51° NE 00:22:10 10° ESE visible
07 Jun - 15:15:04 10° SSW 15:17:58 30° SE 15:20:54 10° ENE daylight
07 Jun - 16:52:11 10° W 16:54:28 17° NW 16:56:46 10° N daylight
07 Jun - 23:24:00 10° NNW 23:26:45 24° NE 23:29:29 10° E visible
